Location: ?ejeti?ky
(50.4060°N, 14.9016°E)
Time: 21:48:45
(UTC+00:00)

Cosmos 1339 Rocket - Pass Details

Date: 07 June 2020
Orbit: 941 x 1006 km, 82.9° (Epoch: 04 July)

Event Time Altitude Azimuth Distance (km) Brightness Sun altitude
Rises 01:51:47 0° 349° (N) 3,624 8.1 -7.5°
Reaches altitude 10° 01:54:16 10° 349° (NNW) 2,678 7.4 -7.2°
Maximum altitude 02:00:24 81° 263° (W) 970 4.5 -6.6°
Drops below altitude 10° 02:06:33 10° 177° (S) 2,694 6.4 -6.0°
Sets 02:09:03 0° 176° (S) 3,646 7.1 -5.7°
